• In Italy
  • List of Countries
  • For 7 days
  • Water Temperature
  • Satellite Maps
  • Weather Map
  • Weather Widgets
  • user-avatar
    Login

    Hourly Weather Perugia

    Today, 22 October, Monday

    Time Temperature Precipitation Wind Pressure Humidity
    00:00 +8°C° 0.1 mm 5 mps 730 mmHg 78%
    01:00 +8°C° 0 mm 5 mps 730 mmHg 79%
    02:00 +8°C° 0.2 mm 5 mps 730 mmHg 78%
    03:00 +8°C° 0.2 mm 5 mps 729 mmHg 78%
    04:00 +9°C° 0.2 mm 5 mps 729 mmHg 78%
    05:00 +9°C° 0 mm 5 mps 729 mmHg 78%
    06:00 +9°C° 0 mm 5 mps 729 mmHg 79%
    07:00 +8°C° 0 mm 4 mps 729 mmHg 81%
    08:00 +10°C° 0.1 mm 5 mps 729 mmHg 76%
    09:00 +11°C° 0.1 mm 6 mps 729 mmHg 72%
    10:00 +12°C° 0.1 mm 8 mps 729 mmHg 68%
    11:00 +12°C° 0 mm 8 mps 729 mmHg 65%
    12:00 +13°C° 0 mm 8 mps 729 mmHg 62%
    13:00 +15°C° 0 mm 7 mps 730 mmHg 58%
    14:00 +14°C° 0 mm 7 mps 729 mmHg 60%
    15:00 +14°C° 0 mm 7 mps 729 mmHg 61%
    16:00 +14°C° 0 mm 7 mps 729 mmHg 63%
    17:00 +13°C° 0 mm 6 mps 729 mmHg 68%
    18:00 +12°C° 0 mm 5 mps 729 mmHg 73%
    19:00 +11°C° 0 mm 4 mps 730 mmHg 77%
    20:00 +11°C° 0 mm 4 mps 730 mmHg 79%
    21:00 +11°C° 0 mm 4 mps 730 mmHg 81%
    22:00 +11°C° 0 mm 4 mps 731 mmHg 82%
    23:00 +11°C° 0 mm 4 mps 731 mmHg 83%

    Tomorrow, 23 October, Tuesday

    Time Temperature Precipitation Wind Pressure Humidity
    00:00 +11°C° 0 mm 4 mps 731 mmHg 84%
    01:00 +11°C° 0 mm 4 mps 731 mmHg 85%
    02:00 +11°C° 0 mm 4 mps 731 mmHg 85%
    03:00 +10°C° 0 mm 3 mps 731 mmHg 85%
    04:00 +10°C° 0 mm 3 mps 731 mmHg 86%
    05:00 +10°C° 0 mm 3 mps 732 mmHg 86%
    06:00 +10°C° 0 mm 3 mps 732 mmHg 86%
    07:00 +10°C° 0 mm 3 mps 732 mmHg 87%
    08:00 +12°C° 0 mm 4 mps 732 mmHg 77%
    09:00 +14°C° 0 mm 5 mps 733 mmHg 68%
    10:00 +16°C° 0 mm 6 mps 733 mmHg 58%
    11:00 +16°C° 0 mm 6 mps 733 mmHg 54%
    12:00 +17°C° 0 mm 5 mps 733 mmHg 49%
    13:00 +19°C° 0 mm 5 mps 733 mmHg 44%
    14:00 +17°C° 0 mm 5 mps 732 mmHg 46%
    15:00 +18°C° 0 mm 4 mps 732 mmHg 48%
    16:00 +17°C° 0 mm 4 mps 732 mmHg 50%
    17:00 +16°C° 0 mm 3 mps 732 mmHg 57%
    18:00 +14°C° 0 mm 2 mps 731 mmHg 65%
    19:00 +12°C° 0 mm 2 mps 731 mmHg 72%
    20:00 +10°C° 0 mm 2 mps 731 mmHg 73%
    21:00 +11°C° 0 mm 1 mps 731 mmHg 74%
    22:00 +10°C° 0 mm 1 mps 731 mmHg 75%
    23:00 +10°C° 0 mm 1 mps 731 mmHg 73%

    Day after tomorrow, 24 October, Wednesday

    Time Temperature Precipitation Wind Pressure Humidity
    00:00 +10°C° 0 mm 1 mps 731 mmHg 71%
    01:00 +10°C° 0 mm 1 mps 731 mmHg 69%
    02:00 +10°C° 0 mm 1 mps 730 mmHg 66%
    03:00 +10°C° 0 mm 1 mps 730 mmHg 63%
    04:00 +10°C° 0 mm 1 mps 730 mmHg 60%
    05:00 +10°C° 0 mm 1 mps 729 mmHg 59%
    06:00 +10°C° 0 mm 1 mps 729 mmHg 57%
    07:00 +10°C° 0 mm 1 mps 729 mmHg 56%
    08:00 +13°C° 0 mm 1 mps 729 mmHg 50%
    09:00 +16°C° 0 mm 1 mps 729 mmHg 43%
    10:00 +19°C° 0 mm 1 mps 730 mmHg 37%
    11:00 +20°C° 0 mm 2 mps 729 mmHg 36%
    12:00 +21°C° 0 mm 2 mps 729 mmHg 34%
    13:00 +23°C° 0 mm 2 mps 729 mmHg 33%
    14:00 +23°C° 0 mm 2 mps 728 mmHg 37%
    15:00 +21°C° 0 mm 2 mps 728 mmHg 42%
    16:00 +21°C° 0 mm 2 mps 728 mmHg 46%
    17:00 +19°C° 0 mm 2 mps 728 mmHg 54%
    18:00 +18°C° 0 mm 1 mps 728 mmHg 63%
    19:00 +15°C° 0 mm 1 mps 728 mmHg 71%
    20:00 +14°C° 0 mm 1 mps 728 mmHg 74%
    21:00 +14°C° 0 mm 1 mps 728 mmHg 77%
    22:00 +13°C° 0 mm 1 mps 728 mmHg 80%
    23:00 +13°C° 0 mm 1 mps 728 mmHg 81%

    25 October, Thursday

    Time Temperature Precipitation Wind Pressure Humidity
    00:00 +13°C° 0 mm 1 mps 729 mmHg 82%
    01:00 +13°C° 0 mm 1 mps 729 mmHg 82%
    02:00 +13°C° 0 mm 1 mps 729 mmHg 81%
    03:00 +13°C° 0 mm 1 mps 729 mmHg 80%
    04:00 +12°C° 0 mm 1 mps 729 mmHg 79%
    05:00 +12°C° 0 mm 1 mps 729 mmHg 78%
    06:00 +12°C° 0 mm 1 mps 729 mmHg 77%
    07:00 +12°C° 0 mm 1 mps 730 mmHg 75%
    08:00 +15°C° 0 mm 1 mps 730 mmHg 66%
    09:00 +18°C° 0 mm 1 mps 731 mmHg 57%
    10:00 +20°C° 0 mm 2 mps 731 mmHg 47%
    11:00 +21°C° 0 mm 2 mps 731 mmHg 44%
    12:00 +22°C° 0 mm 3 mps 731 mmHg 41%
    13:00 +24°C° 0 mm 3 mps 731 mmHg 38%
    14:00 +24°C° 0 mm 3 mps 731 mmHg 42%
    15:00 +22°C° 0 mm 3 mps 730 mmHg 46%
    16:00 +22°C° 0 mm 3 mps 730 mmHg 50%
    17:00 +19°C° 0 mm 2 mps 730 mmHg 59%
    18:00 +17°C° 0 mm 2 mps 730 mmHg 68%
    19:00 +15°C° 0 mm 2 mps 729 mmHg 77%
    20:00 +15°C° 0 mm 2 mps 730 mmHg 81%
    21:00 +14°C° 0 mm 2 mps 730 mmHg 84%
    22:00 +13°C° 0 mm 2 mps 730 mmHg 88%
    23:00 +13°C° 0 mm 2 mps 729 mmHg 89%

    26 October, Friday

    Time Temperature Precipitation Wind Pressure Humidity
    00:00 +13°C° 0 mm 2 mps 729 mmHg 90%
    01:00 +12°C° 0 mm 2 mps 729 mmHg 92%
    02:00 +12°C° 0 mm 2 mps 729 mmHg 92%
    03:00 +12°C° 0 mm 2 mps 729 mmHg 92%
    04:00 +12°C° 0 mm 2 mps 729 mmHg 92%
    05:00 +12°C° 0 mm 2 mps 729 mmHg 90%
    06:00 +13°C° 0 mm 2 mps 729 mmHg 88%
    07:00 +13°C° 0 mm 2 mps 729 mmHg 86%
    08:00 +15°C° 0 mm 2 mps 729 mmHg 82%
    09:00 +16°C° 0 mm 3 mps 729 mmHg 77%
    10:00 +18°C° 0 mm 3 mps 729 mmHg 72%
    11:00 +18°C° 0.1 mm 4 mps 729 mmHg 70%
    12:00 +19°C° 0.1 mm 4 mps 729 mmHg 69%
    13:00 +20°C° 0.1 mm 4 mps 728 mmHg 68%
    14:00 +19°C° 0.1 mm 5 mps 728 mmHg 68%
    15:00 +19°C° 0.1 mm 5 mps 728 mmHg 68%
    16:00 +19°C° 0.1 mm 5 mps 727 mmHg 68%
    17:00 +18°C° 0 mm 4 mps 727 mmHg 76%
    18:00 +17°C° 0 mm 3 mps 727 mmHg 84%
    19:00 +14°C° 0 mm 3 mps 727 mmHg 91%
    20:00 +14°C° 0 mm 3 mps 727 mmHg 92%
    21:00 +14°C° 0 mm 3 mps 727 mmHg 93%
    22:00 +14°C° 0 mm 3 mps 727 mmHg 94%
    23:00 +14°C° 0 mm 3 mps 726 mmHg 94%

    27 October, Saturday

    Time Temperature Precipitation Wind Pressure Humidity
    00:00 +14°C° 0 mm 4 mps 726 mmHg 93%
    01:00 +14°C° 0 mm 4 mps 726 mmHg 93%
    02:00 +14°C° 0.1 mm 4 mps 725 mmHg 93%
    03:00 +14°C° 0.1 mm 4 mps 725 mmHg 93%
    04:00 +14°C° 0.1 mm 4 mps 724 mmHg 93%
    05:00 +14°C° 0.1 mm 4 mps 724 mmHg 93%
    06:00 +14°C° 0.1 mm 4 mps 724 mmHg 93%
    07:00 +14°C° 0.1 mm 4 mps 723 mmHg 93%
    08:00 +16°C° 0.1 mm 5 mps 723 mmHg 86%
    09:00 +17°C° 0.1 mm 6 mps 723 mmHg 78%
    10:00 +18°C° 0.1 mm 7 mps 723 mmHg 71%
    11:00 +20°C° 0.1 mm 8 mps 722 mmHg 66%
    12:00 +19°C° 0.1 mm 9 mps 722 mmHg 62%
    13:00 +21°C° 0.1 mm 9 mps 721 mmHg 57%
    14:00 +18°C° 0.7 mm 8 mps 721 mmHg 63%
    15:00 +17°C° 0.7 mm 7 mps 720 mmHg 68%
    16:00 +15°C° 0.7 mm 6 mps 719 mmHg 73%
    17:00 +15°C° 0.8 mm 7 mps 719 mmHg 76%
    18:00 +15°C° 0.8 mm 8 mps 718 mmHg 78%
    19:00 +15°C° 0.8 mm 8 mps 718 mmHg 80%
    20:00 +15°C° 1.8 mm 8 mps 718 mmHg 81%
    21:00 +15°C° 1.8 mm 8 mps 718 mmHg 83%
    22:00 +13°C° 1.8 mm 8 mps 718 mmHg 84%
    23:00 +12°C° 0.3 mm 7 mps 718 mmHg 79%

    28 October, Sunday

    Time Temperature Precipitation Wind Pressure Humidity
    00:00 +11°C° 0.3 mm 7 mps 718 mmHg 74%
    01:00 +10°C° 0.3 mm 6 mps 718 mmHg 69%
    02:00 +9°C° 0 mm 5 mps 719 mmHg 68%
    03:00 +8°C° 0 mm 5 mps 719 mmHg 66%
    04:00 +8°C° 0 mm 5 mps 720 mmHg 64%
    05:00 +7°C° 0 mm 4 mps 720 mmHg 67%
    06:00 +8°C° 0 mm 3 mps 721 mmHg 69%
    07:00 +7°C° 0 mm 3 mps 721 mmHg 72%
    08:00 +10°C° 0 mm 3 mps 722 mmHg 63%
    09:00 +12°C° 0 mm 4 mps 722 mmHg 54%
    10:00 +14°C° 0 mm 4 mps 723 mmHg 45%
    11:00 +15°C° 0 mm 5 mps 723 mmHg 42%
    12:00 +16°C° 0 mm 5 mps 723 mmHg 40%
    13:00 +17°C° 0 mm 5 mps 723 mmHg 37%
    14:00 +16°C° 0 mm 5 mps 723 mmHg 42%
    15:00 +15°C° 0 mm 4 mps 723 mmHg 46%
    16:00 +15°C° 0 mm 4 mps 723 mmHg 51%
    17:00 +13°C° 0 mm 3 mps 723 mmHg 58%
    18:00 +13°C° 0 mm 2 mps 723 mmHg 66%
    19:00 +11°C° 0 mm 1 mps 723 mmHg 73%
    20:00 +11°C° 0 mm 1 mps 722 mmHg 74%
    21:00 +11°C° 0 mm 1 mps 722 mmHg 74%
    22:00 +11°C° 0 mm 1 mps 722 mmHg 75%
    23:00 +10°C° 0 mm 1 mps 721 mmHg 76%
    Show more